Location: Newark
(18.3602°N, 71.9767°W)
Time: 07:58:12
(UTC+00:00)

N. Korean satellite - Visible Passes

Search period start: 20 September 2020 00:00
Search period end: 30 September 2020 00:00
Orbit: 455 x 503 km, 97.2° (Epoch: 19 September)

Date Brightness Start Highest point End Pass type
(mag) Time Alt. Az. Time Alt. Az. Time Alt. Az.
20 Sep 10.1 09:16:09 10° ENE 09:17:24 11° E 09:18:37 10° ESE visible
22 Sep 7.5 09:55:15 10° NNE 09:58:45 51° E 10:02:12 10° S visible
23 Sep 9.5 09:30:05 10° NE 09:32:44 20° E 09:35:21 10° SE visible
25 Sep 6.5 10:10:28 10° N 10:14:01 83° WNW 10:17:32 10° SSW visible
26 Sep 8.4 09:44:47 10° NNE 09:48:02 34° E 09:51:14 10° SSE visible
27 Sep 9.9 09:20:12 10° ENE 09:21:59 13° E 09:23:45 10° SE visible
29 Sep 7.0 09:59:47 10° NNE 10:03:18 63° E 10:06:44 10° S visible
